This is the latest recevied weather packets stored in our database for station/object IT9CNT. If no packets are shown the sender has not sent any weather packets the latest 10 day(s).
| Time | Temp. | Humidity | Pressure | Rain* | Wind** | Luminosity | Snow |
|---|---|---|---|---|---|---|---|
| 1777538343 | 21.67° C | 65% | 1012.9 hPa | 0 mm | - | - | - |
| 1777538283 | 21.11° C | 66% | 1012.8 hPa | 0 mm | - | - | - |
| 1777538223 | 21.11° C | 67% | 1013 hPa | 0 mm | - | - | - |
| 1777538163 | 21.11° C | 66% | 1012.7 hPa | 0 mm | - | - | - |
| 1777538107 | 21.11° C | 66% | 1012.7 hPa | 0 mm | - | - | - |
| 1777538043 | 21.11° C | 67% | 1012.8 hPa | 0 mm | - | - | - |
| 1777537983 | 21.11° C | 67% | 1012.8 hPa | 0 mm | - | - | - |
| 1777537923 | 21.11° C | 66% | 1012.9 hPa | 0 mm | - | - | - |
| 1777537863 | 21.67° C | 65% | 1012.8 hPa | 0 mm | - | - | - |
| 1777537803 | 21.67° C | 65% | 1012.9 hPa | 0 mm | - | - | - |
| 1777537744 | 21.67° C | 65% | 1012.9 hPa | 0 mm | - | - | - |
| 1777537693 | 21.67° C | 63% | 1013 hPa | 0 mm | - | - | - |
| 1777537624 | 21.67° C | 63% | 1013 hPa | 0 mm | - | - | - |
| 1777537564 | 21.67° C | 64% | 1012.8 hPa | 0 mm | - | - | - |
| 1777537504 | 22.22° C | 63% | 1012.7 hPa | 0 mm | - | - | - |
| 1777537444 | 21.67° C | 63% | 1012.8 hPa | 0 mm | - | - | - |
| 1777537384 | 21.67° C | 63% | 1012.8 hPa | 0 mm | - | - | - |
| 1777537324 | 21.67° C | 63% | 1012.9 hPa | 0 mm | - | - | - |
| 1777537264 | 21.11° C | 62% | 1012.8 hPa | 0 mm | - | - | - |
| 1777537204 | 20.56° C | 62% | 1012.8 hPa | 0 mm | - | - | - |
| 1777537144 | 21.11° C | 63% | 1012.8 hPa | 0 mm | - | - | - |
| 1777537084 | 21.11° C | 64% | 1012.7 hPa | 0 mm | - | - | - |
| 1777537024 | 21.11° C | 64% | 1012.7 hPa | 0 mm | - | - | - |
| 1777536964 | 21.11° C | 65% | 1012.8 hPa | 0 mm | - | - | - |
| 1777536904 | 21.11° C | 65% | 1012.7 hPa | 0 mm | - | - | - |
* Rain latest hour (hover to see other rain measurements)
** Current wind speed in m/s (hover to see current wind gust speed)